Simultaneous Nadir Overpasses (SNOs) Predictions

Prediction of SNOs between NOAA-19 and METOP-C Satellite Orbit:

Table of predicted SNOs for the next 14.0 days since TLE Epoch: 11/9/2024
Index Date (NOAA-19) Time (NOAA-19) Lat,Lon (NOAA-19) SZA (NOAA-19 ) Date (METOP-C) Time (METOP-C) Lat,Lon (METOP-C) SZA (METOP-C ) Distance(km) Time Diff (sec)
1 11/16/2024 09:09:08 -49.30,-163.97 108.99 11/16/2024 09:10:23 -49.41,-164.56 108.82 44.33 75
2 11/16/2024 09:36:15 45.07, 169.54 136.22 11/16/2024 09:37:18 45.11, 169.67 136.46 11.45 63
3 11/16/2024 10:27:11 -45.10, -23.20 43.80 11/16/2024 10:27:57 -45.17, -23.01 43.57 16.92 46
4 11/16/2024 11:18:12 45.06, 144.06 136.23 11/16/2024 11:18:39 45.09, 144.34 136.48 22.60 27
5 11/16/2024 12:34:13 -45.27, 143.35 112.26 11/16/2024 12:34:17 -45.31, 143.08 112.14 21.66 4
6 11/16/2024 13:25:18 45.03, -49.50 67.56 11/16/2024 13:24:59 45.03, -49.68 67.65 14.46 19
7 11/16/2024 14:16:14 -45.05, 117.78 112.42 11/16/2024 14:15:43 -45.05, 117.64 112.33 10.59 31
8 11/16/2024 15:07:15 45.04, -74.98 67.59 11/16/2024 15:06:20 45.06, -75.01 67.69 3.33 55



Historial Predications of SNOs between NOAA-19 and METOP-C
